QPF
0.02 0.02 0.02 0.02 0.01 0.01 0.02 0.02 0.02 0.02 0.02 0.02 0.03 0.03 0.03 0.02 0.02 0.02 0.02 0.01 0.02 0.05 0.07 0.08 0.06 0.04 0.03 0.03 0.04 0.03 0.03 0.03 0.02 0.02 0.02 0.02 0.01 0.01 0.02 0.03 0.03 0.03 0.04
0.02 0.02 0.02 0.02 0.01 0.01 0.01 0.01 0.02 0.02 0.02 0.02 0.02 0.02 0.03 0.02 0.02 0.01 0.01 0.01 0.01 0.03 0.05 0.08 0.08 0.06 0.05 0.04 0.04 0.03 0.03 0.03 0.03 0.02 0.03 0.02 0.02 0.01 0.01 0.01 0.01 0.02 0.02
0.02 0.01 0.01 0.01 0.01 0.01 0.01 0.01 0.01 0.02 0.02 0.02 0.01 0.01 0.02 0.01 0.01 0.01 0.01 0.00 0.01 0.01 0.03 0.05 0.08 0.08 0.06 0.05 0.04 0.04 0.04 0.04 0.04 0.04 0.04 0.03 0.02 0.01 0.01 0.01 0.01 0.01 0.01
0.02 0.01 0.01 0.01 0.01 0.01 0.01 0.01 0.02 0.02 0.01 0.01 0.01 0.01 0.01 0.01 0.01 0.01 0.00 0.00 0.01 0.01 0.02 0.03 0.05 0.07 0.07 0.06 0.04 0.04 0.05 0.05 0.05 0.05 0.05 0.03 0.02 0.01 0.01 0.01 0.01 0.01 0.01
0.02 0.02 0.01 0.01 0.01 0.01 0.01 0.02 0.02 0.02 0.01 0.01 0.01 0.01 0.01 0.01 0.01 0.01 0.00 0.00 0.01 0.01 0.01 0.02 0.04 0.05 0.06 0.06 0.05 0.03 0.03 0.04 0.04 0.04 0.04 0.04 0.03 0.01 0.01 0.01 0.01 0.01 0.01
0.03 0.02 0.02 0.01 0.01 0.01 0.02 0.02 0.03 0.03 0.02 0.01 0.01 0.01 0.01 0.01 0.01 0.01 0.01 0.00 0.00 0.01 0.01 0.02 0.02 0.03 0.05 0.05 0.05 0.04 0.03 0.03 0.03 0.03 0.03 0.03 0.03 0.02 0.01 0.01 0.01 0.01 0.01
0.04 0.03 0.02 0.01 0.01 0.02 0.02 0.03 0.03 0.03 0.03 0.02 0.01 0.01 0.01 0.01 0.00 0.00 0.00 0.00 0.00 0.00 0.01 0.01 0.02 0.02 0.03 0.04 0.04 0.03 0.03 0.04 0.03 0.02 0.03 0.03 0.02 0.02 0.01 0.01 0.01 0.01 0.01
0.03 0.04 0.03 0.02 0.02 0.02 0.02 0.02 0.03 0.03 0.03 0.02 0.02 0.01 0.01 0.01 0.01 0.00 0.00 0.00 0.00 0.01 0.01 0.01 0.01 0.02 0.02 0.03 0.03 0.03 0.02 0.03 0.04 0.02 0.02 0.03 0.04 0.02 0.01 0.01 0.01 0.01 0.01
0.03 0.03 0.03 0.03 0.03 0.03 0.03 0.03 0.02 0.02 0.03 0.03 0.02 0.01 0.01 0.01 0.01 0.01 0.01 0.01 0.01 0.00 0.01 0.01 0.01 0.01 0.02 0.02 0.03 0.03 0.02 0.02 0.03 0.02 0.02 0.01 0.03 0.04 0.02 0.01 0.01 0.01 0.01
0.03 0.03 0.03 0.03 0.03 0.03 0.04 0.04 0.03 0.03 0.03 0.03 0.03 0.02 0.01 0.01 0.01 0.01 0.01 0.01 0.01 0.01 0.01 0.01 0.01 0.01 0.01 0.02 0.02 0.02 0.02 0.02 0.02 0.02 0.01 0.01 0.01 0.03 0.03 0.01 0.01 0.01 0.01
0.02 0.02 0.02 0.03 0.02 0.02 0.03 0.04 0.03 0.02 0.03 0.03 0.02 0.02 0.01 0.01 0.00 0.00 0.00 0.01 0.01 0.01 0.01 0.01 0.01 0.01 0.01 0.01 0.02 0.02 0.02 0.02 0.02 0.01 0.01 0.01 0.02 0.02 0.03 0.03 0.02 0.01 0.01
0.02 0.02 0.02 0.02 0.01 0.01 0.01 0.02 0.02 0.02 0.02 0.02 0.02 0.02 0.02 0.02 0.01 0.01 0.01 0.01 0.01 0.01 0.01 0.01 0.01 0.01 0.01 0.01 0.01 0.02 0.02 0.02 0.02 0.01 0.01 0.01 0.01 0.01 0.01 0.02 0.02 0.01 0.01
0.02 0.02 0.02 0.01 0.01 0.01 0.01 0.01 0.01 0.02 0.02 0.02 0.02 0.02 0.02 0.01 0.01 0.01 0.01 0.01 0.01 0.02 0.02 0.02 0.01 0.01 0.01 0.01 0.01 0.01 0.02 0.02 0.02 0.01 0.01 0.01 0.01 0.01 0.01 0.01 0.01 0.01 0.01
0.03 0.02 0.02 0.02 0.02 0.01 0.01 0.01 0.01 0.01 0.01 0.01 0.02 0.02 0.02 0.01 0.01 0.01 0.01 0.00 0.00 0.01 0.01 0.01 0.01 0.00 0.00 0.01 0.01 0.01 0.01 0.01 0.01 0.01 0.01 0.01 0.01 0.01 0.01 0.01 0.01 0.01 0.01
0.04 0.03 0.03 0.03 0.02 0.01 0.01 0.01 0.01 0.01 0.01 0.01 0.01 0.01 0.01 0.01 0.01 0.01 0.00 0.00 0.00 0.00 0.01 0.01 0.01 0.00 0.00 0.00 0.01 0.01 0.01 0.01 0.01 0.01 0.01 0.01 0.01 0.01 0.01 0.01 0.01 0.01 0.02
0.07 0.06 0.05 0.05 0.04 0.02 0.01 0.01 0.01 0.01 0.01 0.01 0.01 0.01 0.01 0.01 0.01 0.01 0.01 0.00 0.01 0.01 0.01 0.01 0.01 0.00 0.00 0.00 0.01 0.01 0.01 0.01 0.01 0.01 0.01 0.01 0.01 0.01 0.01 0.01 0.01 0.02 0.03
0.05 0.05 0.05 0.06 0.05 0.03 0.02 0.01 0.01 0.01 0.01 0.01 0.01 0.01 0.01 0.01 0.01 0.01 0.01 0.01 0.01 0.01 0.01 0.01 0.00 0.00 0.00 0.01 0.01 0.01 0.01 0.01 0.01 0.01 0.01 0.01 0.01 0.01 0.01 0.01 0.02 0.02 0.03
0.03 0.03 0.03 0.03 0.03 0.03 0.02 0.02 0.01 0.01 0.01 0.01 0.01 0.01 0.01 0.01 0.01 0.01 0.01 0.01 0.01 0.01 0.01 0.01 0.01 0.01 0.01 0.01 0.01 0.01 0.01 0.01 0.01 0.01 0.01 0.01 0.01 0.01 0.01 0.01 0.01 0.01 0.02
0.03 0.03 0.02 0.02 0.02 0.02 0.02 0.02 0.01 0.01 0.01 0.01 0.01 0.02 0.02 0.02 0.01 0.01 0.01 0.01 0.01 0.01 0.01 0.01 0.01 0.01 0.01 0.01 0.01 0.01 0.01 0.02 0.02 0.02 0.01 0.01 0.01 0.01 0.02 0.02 0.02 0.02 0.01
0.02 0.02 0.02 0.01 0.02 0.02 0.02 0.02 0.02 0.02 0.02 0.02 0.01 0.02 0.02 0.02 0.02 0.02 0.01 0.01 0.01 0.01 0.01 0.01 0.01 0.01 0.01 0.01 0.01 0.01 0.01 0.01 0.01 0.02 0.02 0.02 0.02 0.02 0.03 0.03 0.03 0.03 0.02
0.01 0.01 0.01 0.01 0.02 0.02 0.02 0.02 0.02 0.02 0.02 0.02 0.02 0.02 0.02 0.03 0.02 0.02 0.02 0.01 0.01 0.01 0.01 0.01 0.01 0.01 0.01 0.01 0.01 0.01 0.01 0.01 0.02 0.02 0.02 0.02 0.02 0.02 0.02 0.03 0.03 0.02 0.02
0.01 0.01 0.01 0.01 0.01 0.01 0.02 0.02 0.02 0.02 0.03 0.02 0.02 0.02 0.02 0.02 0.03 0.03 0.02 0.02 0.02 0.01 0.01 0.02 0.02 0.02 0.02 0.02 0.02 0.01 0.02 0.02 0.02 0.02 0.02 0.02 0.02 0.02 0.02 0.03 0.02 0.02 0.03
0.02 0.01 0.01 0.01 0.01 0.01 0.01 0.01 0.02 0.03 0.03 0.02 0.02 0.03 0.02 0.03 0.03 0.03 0.02 0.02 0.02 0.02 0.02 0.02 0.02 0.02 0.02 0.03 0.03 0.02 0.02 0.02 0.02 0.02 0.02 0.02 0.02 0.02 0.02 0.02 0.03 0.03 0.03
0.02 0.01 0.01 0.01 0.01 0.01 0.01 0.01 0.01 0.02 0.03 0.03 0.03 0.03 0.03 0.03 0.03 0.03 0.03 0.02 0.02 0.03 0.03 0.03 0.03 0.03 0.02 0.03 0.03 0.03 0.03 0.03 0.02 0.02 0.02 0.02 0.02 0.02 0.03 0.03 0.03 0.03 0.03
0.02 0.01 0.01 0.01 0.01 0.01 0.01 0.01 0.02 0.02 0.02 0.02 0.02 0.02 0.02 0.03 0.03 0.03 0.04 0.04 0.03 0.03 0.03 0.03 0.03 0.03 0.03 0.02 0.03 0.04 0.03 0.03 0.03 0.03 0.03 0.03 0.03 0.03 0.03 0.03 0.03 0.03 0.03
0.03 0.02 0.02 0.02 0.02 0.02 0.02 0.02 0.02 0.03 0.03 0.02 0.02 0.02 0.02 0.02 0.03 0.03 0.04 0.05 0.05 0.05 0.03 0.03 0.03 0.03 0.03 0.02 0.02 0.02 0.03 0.03 0.03 0.03 0.04 0.04 0.04 0.04 0.03 0.03 0.03 0.03 0.03
MSLP
1007.04 1007.44 1007.95 1008.54 1009.17 1009.81 1010.42 1010.99 1011.53 1012.03 1012.54 1013.07 1013.63 1014.24 1014.90 1015.57 1016.26 1016.93 1017.57 1018.18 1018.75 1019.31 1019.87 1020.43 1021.01 1021.61 1022.22 1022.83 1023.43 1024.01 1024.56 1025.08 1025.58 1026.04 1026.47 1026.86 1027.22 1027.52 1027.76 1027.95 1028.09 1028.19 1028.26
1006.68 1006.97 1007.41 1007.99 1008.65 1009.36 1010.08 1010.76 1011.38 1011.95 1012.48 1012.99 1013.50 1014.03 1014.61 1015.23 1015.88 1016.55 1017.23 1017.89 1018.54 1019.15 1019.75 1020.34 1020.91 1021.49 1022.07 1022.65 1023.23 1023.82 1024.40 1024.96 1025.51 1026.03 1026.51 1026.94 1027.32 1027.63 1027.87 1028.04 1028.17 1028.26 1028.33
1006.56 1006.67 1006.97 1007.46 1008.10 1008.84 1009.63 1010.41 1011.13 1011.77 1012.34 1012.84 1013.31 1013.78 1014.29 1014.84 1015.46 1016.12 1016.81 1017.52 1018.21 1018.89 1019.53 1020.14 1020.73 1021.29 1021.85 1022.41 1022.98 1023.56 1024.16 1024.76 1025.35 1025.92 1026.44 1026.91 1027.31 1027.63 1027.87 1028.04 1028.16 1028.24 1028.32
1006.79 1006.66 1006.74 1007.07 1007.61 1008.32 1009.13 1009.97 1010.77 1011.48 1012.10 1012.61 1013.07 1013.49 1013.94 1014.44 1015.01 1015.65 1016.35 1017.08 1017.82 1018.54 1019.23 1019.86 1020.46 1021.03 1021.58 1022.12 1022.69 1023.28 1023.89 1024.51 1025.14 1025.74 1026.30 1026.80 1027.22 1027.55 1027.79 1027.96 1028.07 1028.15 1028.23
1007.41 1006.98 1006.79 1006.88 1007.26 1007.86 1008.64 1009.49 1010.33 1011.10 1011.75 1012.30 1012.76 1013.17 1013.58 1014.03 1014.57 1015.18 1015.88 1016.62 1017.39 1018.14 1018.86 1019.53 1020.14 1020.72 1021.28 1021.83 1022.40 1022.99 1023.62 1024.26 1024.91 1025.55 1026.13 1026.65 1027.08 1027.42 1027.67 1027.83 1027.95 1028.03 1028.11
1008.39 1007.64 1007.13 1006.94 1007.08 1007.52 1008.19 1009.00 1009.84 1010.63 1011.33 1011.91 1012.38 1012.80 1013.20 1013.64 1014.16 1014.76 1015.44 1016.18 1016.96 1017.73 1018.47 1019.16 1019.80 1020.40 1020.97 1021.53 1022.11 1022.72 1023.36 1024.03 1024.70 1025.34 1025.95 1026.48 1026.92 1027.27 1027.52 1027.69 1027.81 1027.89 1027.97
1009.61 1008.55 1007.72 1007.23 1007.10 1007.32 1007.83 1008.53 1009.32 1010.11 1010.83 1011.44 1011.96 1012.41 1012.84 1013.29 1013.80 1014.39 1015.07 1015.81 1016.58 1017.35 1018.10 1018.80 1019.46 1020.07 1020.66 1021.24 1021.84 1022.47 1023.12 1023.80 1024.48 1025.14 1025.76 1026.30 1026.75 1027.11 1027.37 1027.55 1027.68 1027.76 1027.83
1010.94 1009.60 1008.48 1007.69 1007.29 1007.27 1007.58 1008.13 1008.83 1009.57 1010.29 1010.94 1011.51 1012.01 1012.49 1012.98 1013.52 1014.12 1014.79 1015.51 1016.27 1017.02 1017.76 1018.46 1019.12 1019.75 1020.35 1020.95 1021.57 1022.22 1022.89 1023.58 1024.26 1024.93 1025.55 1026.09 1026.56 1026.93 1027.21 1027.41 1027.54 1027.64 1027.71
1012.25 1010.70 1009.34 1008.30 1007.63 1007.36 1007.45 1007.83 1008.40 1009.07 1009.77 1010.43 1011.05 1011.63 1012.17 1012.72 1013.30 1013.93 1014.60 1015.30 1016.03 1016.76 1017.47 1018.15 1018.80 1019.42 1020.04 1020.65 1021.29 1021.95 1022.63 1023.32 1024.01 1024.68 1025.30 1025.85 1026.32 1026.71 1027.01 1027.23 1027.39 1027.51 1027.59
1013.43 1011.76 1010.24 1009.00 1008.12 1007.62 1007.49 1007.67 1008.09 1008.66 1009.31 1009.98 1010.64 1011.28 1011.90 1012.52 1013.16 1013.81 1014.49 1015.18 1015.87 1016.56 1017.23 1017.87 1018.49 1019.10 1019.71 1020.34 1020.98 1021.65 1022.33 1023.02 1023.71 1024.37 1024.98 1025.54 1026.02 1026.43 1026.76 1027.01 1027.21 1027.35 1027.47
1014.47 1012.76 1011.16 1009.80 1008.76 1008.07 1007.73 1007.72 1007.97 1008.41 1008.98 1009.62 1010.30 1010.99 1011.69 1012.38 1013.07 1013.76 1014.45 1015.12 1015.78 1016.42 1017.03 1017.63 1018.21 1018.80 1019.40 1020.02 1020.66 1021.32 1022.01 1022.69 1023.36 1024.01 1024.61 1025.16 1025.65 1026.08 1026.43 1026.73 1026.96 1027.15 1027.30
1015.41 1013.73 1012.14 1010.73 1009.58 1008.74 1008.22 1008.00 1008.07 1008.36 1008.82 1009.41 1010.07 1010.79 1011.53 1012.29 1013.03 1013.75 1014.45 1015.11 1015.73 1016.32 1016.88 1017.43 1017.97 1018.53 1019.11 1019.71 1020.35 1021.00 1021.67 1022.34 1022.99 1023.61 1024.19 1024.73 1025.21 1025.65 1026.03 1026.36 1026.64 1026.88 1027.07
1016.32 1014.74 1013.21 1011.80 1010.59 1009.64 1008.96 1008.56 1008.44 1008.55 1008.88 1009.37 1009.98 1010.69 1011.45 1012.24 1013.01 1013.76 1014.46 1015.11 1015.70 1016.25 1016.77 1017.27 1017.78 1018.31 1018.87 1019.46 1020.08 1020.72 1021.36 1022.00 1022.61 1023.20 1023.75 1024.26 1024.74 1025.17 1025.57 1025.93 1026.25 1026.53 1026.77
1017.30 1015.85 1014.41 1013.05 1011.82 1010.78 1009.96 1009.38 1009.07 1008.99 1009.15 1009.51 1010.04 1010.69 1011.44 1012.22 1013.01 1013.76 1014.46 1015.10 1015.68 1016.21 1016.69 1017.17 1017.65 1018.16 1018.70 1019.27 1019.87 1020.48 1021.10 1021.70 1022.27 1022.81 1023.32 1023.80 1024.25 1024.67 1025.07 1025.45 1025.80 1026.12 1026.40
1018.41 1017.10 1015.77 1014.47 1013.25 1012.14 1011.20 1010.45 1009.94 1009.67 1009.64 1009.84 1010.24 1010.80 1011.48 1012.23 1013.00 1013.75 1014.44 1015.08 1015.65 1016.16 1016.63 1017.10 1017.57 1018.06 1018.59 1019.15 1019.72 1020.31 1020.88 1021.44 1021.96 1022.45 1022.91 1023.35 1023.77 1024.17 1024.56 1024.94 1025.31 1025.65 1025.96
1019.66 1018.49 1017.27 1016.04 1014.82 1013.67 1012.61 1011.72 1011.02 1010.55 1010.32 1010.33 1010.57 1011.01 1011.59 1012.26 1012.98 1013.70 1014.38 1015.01 1015.57 1016.09 1016.57 1017.04 1017.51 1018.00 1018.52 1019.06 1019.62 1020.17 1020.71 1021.21 1021.69 1022.13 1022.54 1022.93 1023.31 1023.69 1024.07 1024.44 1024.81 1025.16 1025.49
1021.03 1019.97 1018.85 1017.68 1016.48 1015.29 1014.15 1013.12 1012.25 1011.59 1011.16 1010.98 1011.04 1011.31 1011.76 1012.33 1012.97 1013.63 1014.28 1014.89 1015.46 1015.98 1016.47 1016.95 1017.44 1017.94 1018.45 1018.98 1019.51 1020.03 1020.53 1020.99 1021.41 1021.81 1022.18 1022.53 1022.88 1023.24 1023.60 1023.97 1024.33 1024.68 1025.00
1022.45 1021.48 1020.45 1019.33 1018.15 1016.93 1015.73 1014.59 1013.59 1012.75 1012.14 1011.77 1011.64 1011.73 1012.02 1012.45 1012.98 1013.56 1014.16 1014.74 1015.29 1015.82 1016.33 1016.82 1017.32 1017.82 1018.34 1018.85 1019.36 1019.84 1020.30 1020.72 1021.11 1021.47 1021.81 1022.15 1022.48 1022.82 1023.18 1023.53 1023.88 1024.22 1024.54
1023.83 1022.94 1021.97 1020.91 1019.76 1018.55 1017.31 1016.10 1014.99 1014.02 1013.25 1012.70 1012.38 1012.28 1012.39 1012.66 1013.06 1013.54 1014.05 1014.58 1015.11 1015.62 1016.13 1016.64 1017.14 1017.65 1018.15 1018.65 1019.13 1019.59 1020.01 1020.40 1020.76 1021.10 1021.43 1021.76 1022.09 1022.44 1022.79 1023.15 1023.50 1023.83 1024.13
1025.10 1024.28 1023.38 1022.37 1021.27 1020.09 1018.85 1017.62 1016.44 1015.38 1014.48 1013.77 1013.28 1013.00 1012.92 1013.02 1013.26 1013.60 1014.01 1014.46 1014.94 1015.43 1015.93 1016.42 1016.93 1017.42 1017.91 1018.38 1018.84 1019.26 1019.66 1020.02 1020.37 1020.71 1021.04 1021.38 1021.73 1022.09 1022.46 1022.82 1023.17 1023.49 1023.78
1026.22 1025.46 1024.63 1023.70 1022.66 1021.54 1020.35 1019.13 1017.94 1016.82 1015.83 1015.00 1014.35 1013.90 1013.64 1013.56 1013.63 1013.82 1014.10 1014.46 1014.86 1015.30 1015.76 1016.24 1016.71 1017.19 1017.65 1018.10 1018.52 1018.91 1019.28 1019.63 1019.97 1020.31 1020.66 1021.02 1021.40 1021.79 1022.18 1022.56 1022.91 1023.23 1023.50
1027.18 1026.48 1025.73 1024.88 1023.94 1022.90 1021.78 1020.62 1019.45 1018.33 1017.29 1016.37 1015.60 1015.00 1014.57 1014.31 1014.21 1014.24 1014.39 1014.63 1014.94 1015.30 1015.71 1016.14 1016.58 1017.02 1017.45 1017.85 1018.24 1018.60 1018.95 1019.29 1019.62 1019.97 1020.33 1020.72 1021.12 1021.54 1021.95 1022.34 1022.69 1023.01 1023.28
1027.99 1027.37 1026.70 1025.95 1025.11 1024.17 1023.16 1022.08 1020.98 1019.88 1018.83 1017.86 1017.01 1016.29 1015.72 1015.30 1015.03 1014.91 1014.91 1015.02 1015.23 1015.51 1015.84 1016.21 1016.60 1016.99 1017.37 1017.73 1018.08 1018.41 1018.73 1019.05 1019.38 1019.72 1020.10 1020.50 1020.92 1021.35 1021.77 1022.16 1022.52 1022.82 1023.08
1028.71 1028.16 1027.57 1026.92 1026.19 1025.37 1024.47 1023.49 1022.47 1021.43 1020.41 1019.43 1018.52 1017.72 1017.04 1016.49 1016.09 1015.82 1015.69 1015.68 1015.77 1015.95 1016.20 1016.50 1016.82 1017.15 1017.48 1017.79 1018.10 1018.39 1018.67 1018.97 1019.28 1019.62 1019.98 1020.38 1020.80 1021.22 1021.63 1022.02 1022.36 1022.65 1022.89
1029.39 1028.90 1028.38 1027.82 1027.18 1026.47 1025.68 1024.82 1023.89 1022.93 1021.95 1020.99 1020.07 1019.23 1018.48 1017.84 1017.33 1016.96 1016.71 1016.58 1016.57 1016.66 1016.82 1017.03 1017.28 1017.54 1017.81 1018.06 1018.32 1018.56 1018.81 1019.07 1019.35 1019.66 1020.00 1020.38 1020.77 1021.16 1021.55 1021.90 1022.22 1022.48 1022.70
1030.05 1029.61 1029.15 1028.65 1028.09 1027.47 1026.77 1026.01 1025.18 1024.30 1023.39 1022.48 1021.58 1020.74 1019.96 1019.28 1018.71 1018.25 1017.91 1017.70 1017.59 1017.58 1017.65 1017.78 1017.95 1018.14 1018.34 1018.54 1018.73 1018.93 1019.13 1019.34 1019.58 1019.85 1020.15 1020.48 1020.82 1021.17 1021.50 1021.81 1022.08 1022.31 1022.49
Thickness
5551 5554 5557 5561 5565 5569 5573 5577 5580 5582 5585 5589 5591 5593 5595 5597 5598 5600 5602 5604 5605 5607 5608 5609 5610 5610 5610 5610 5610 5608 5606 5605 5604 5603 5600 5599 5599 5600 5599 5598 5598 5597 5596
5538 5541 5545 5549 5553 5557 5560 5565 5568 5571 5575 5578 5581 5583 5585 5586 5589 5591 5592 5594 5596 5598 5600 5601 5602 5603 5603 5603 5603 5602 5600 5598 5597 5598 5596 5595 5593 5592 5591 5590 5590 5590 5589
5525 5529 5532 5535 5540 5544 5548 5552 5557 5560 5563 5566 5569 5572 5573 5576 5578 5581 5583 5585 5587 5589 5590 5592 5594 5594 5595 5596 5596 5596 5595 5592 5590 5591 5593 5593 5593 5588 5584 5583 5583 5582 5581
5512 5515 5518 5523 5526 5530 5535 5540 5545 5548 5551 5555 5559 5563 5567 5569 5571 5572 5573 5575 5577 5579 5581 5583 5584 5586 5587 5587 5588 5588 5588 5587 5585 5583 5583 5585 5587 5585 5581 5577 5576 5574 5573
5499 5502 5505 5509 5513 5517 5522 5527 5532 5536 5539 5543 5548 5552 5556 5559 5560 5561 5563 5565 5567 5569 5571 5573 5575 5577 5578 5579 5579 5580 5580 5580 5580 5578 5576 5575 5575 5578 5577 5575 5571 5568 5566
5485 5488 5491 5495 5500 5505 5509 5514 5519 5523 5527 5531 5536 5540 5544 5547 5550 5552 5554 5556 5558 5559 5561 5563 5565 5567 5569 5570 5570 5571 5572 5572 5572 5571 5570 5570 5569 5569 5569 5569 5566 5563 5560
5471 5475 5479 5483 5488 5492 5496 5502 5506 5510 5514 5519 5523 5527 5531 5535 5539 5542 5544 5547 5549 5550 5552 5553 5556 5557 5559 5560 5561 5562 5562 5563 5563 5563 5563 5562 5562 5562 5561 5560 5557 5555 5552
5458 5462 5465 5470 5475 5479 5483 5489 5493 5497 5502 5506 5510 5514 5518 5522 5526 5530 5533 5536 5539 5541 5542 5544 5546 5548 5549 5551 5552 5553 5554 5554 5554 5554 5554 5553 5553 5552 5551 5550 5548 5546 5545
5444 5447 5451 5456 5460 5465 5470 5475 5479 5484 5489 5493 5497 5501 5505 5509 5514 5517 5521 5524 5527 5529 5531 5533 5535 5537 5540 5541 5542 5544 5544 5544 5545 5545 5544 5544 5543 5542 5541 5541 5540 5540 5541
5431 5434 5437 5441 5446 5451 5456 5461 5465 5470 5475 5480 5484 5488 5492 5496 5500 5504 5508 5512 5515 5518 5520 5523 5525 5527 5530 5531 5533 5534 5534 5535 5536 5535 5535 5535 5535 5534 5532 5531 5531 5532 5534
5416 5420 5424 5428 5432 5437 5442 5447 5452 5457 5462 5467 5470 5474 5479 5483 5487 5492 5495 5499 5502 5506 5509 5512 5514 5517 5519 5521 5523 5524 5525 5525 5526 5526 5526 5526 5526 5525 5524 5523 5522 5521 5522
5402 5406 5410 5414 5419 5424 5429 5433 5438 5443 5448 5453 5457 5461 5465 5469 5475 5479 5483 5486 5490 5494 5497 5500 5503 5506 5508 5510 5512 5514 5515 5516 5516 5517 5517 5518 5517 5516 5516 5515 5513 5513 5512
5390 5394 5397 5401 5406 5410 5415 5419 5424 5429 5434 5439 5444 5449 5453 5457 5462 5467 5471 5475 5478 5482 5485 5488 5492 5495 5497 5499 5501 5503 5505 5506 5507 5508 5508 5509 5508 5508 5507 5506 5505 5504 5503
5378 5382 5386 5390 5393 5397 5401 5406 5411 5416 5421 5426 5432 5436 5440 5445 5449 5454 5459 5463 5466 5470 5473 5477 5480 5483 5486 5488 5490 5492 5494 5496 5497 5498 5499 5499 5499 5499 5498 5497 5497 5496 5494
5368 5371 5374 5377 5381 5385 5389 5394 5399 5404 5409 5414 5419 5424 5428 5433 5438 5442 5446 5451 5454 5458 5462 5465 5468 5471 5474 5477 5479 5481 5483 5485 5487 5488 5489 5490 5490 5490 5489 5489 5489 5487 5486
5357 5360 5362 5365 5369 5373 5377 5382 5387 5392 5397 5403 5407 5411 5416 5421 5426 5430 5434 5438 5443 5446 5450 5454 5457 5460 5463 5466 5467 5469 5472 5475 5477 5478 5479 5480 5480 5479 5479 5479 5479 5479 5478
5344 5347 5350 5354 5357 5361 5365 5370 5375 5380 5386 5391 5395 5400 5404 5409 5414 5418 5422 5426 5430 5434 5438 5442 5445 5449 5452 5454 5456 5457 5460 5464 5467 5468 5469 5470 5471 5470 5470 5470 5469 5469 5469
5332 5335 5338 5342 5346 5350 5354 5359 5363 5369 5374 5379 5384 5388 5393 5398 5402 5406 5410 5414 5418 5422 5426 5430 5433 5437 5441 5443 5445 5446 5449 5452 5456 5457 5459 5460 5461 5461 5461 5461 5460 5460 5460
5321 5324 5327 5330 5335 5339 5343 5347 5352 5358 5362 5367 5371 5376 5381 5386 5391 5395 5398 5402 5406 5410 5414 5417 5421 5425 5429 5431 5433 5434 5438 5441 5444 5446 5448 5449 5451 5452 5451 5451 5451 5450 5450
5312 5314 5318 5321 5325 5328 5332 5336 5341 5346 5350 5354 5359 5364 5369 5374 5379 5383 5386 5390 5394 5398 5402 5405 5409 5412 5416 5419 5421 5423 5427 5430 5433 5435 5436 5438 5440 5440 5440 5441 5442 5441 5441
5303 5305 5309 5312 5315 5318 5321 5325 5330 5334 5338 5342 5347 5353 5358 5363 5368 5372 5375 5379 5383 5387 5390 5393 5397 5400 5403 5406 5409 5411 5414 5418 5421 5423 5426 5428 5429 5429 5429 5431 5432 5432 5431
5294 5297 5299 5302 5304 5307 5311 5315 5319 5323 5328 5332 5338 5343 5348 5352 5357 5361 5365 5368 5372 5376 5379 5382 5385 5388 5391 5393 5397 5399 5401 5405 5409 5412 5414 5416 5417 5418 5419 5419 5421 5420 5419
5284 5287 5290 5293 5295 5298 5301 5305 5308 5313 5317 5323 5328 5333 5338 5342 5346 5350 5354 5358 5362 5365 5369 5371 5374 5377 5379 5382 5385 5387 5390 5392 5395 5399 5401 5403 5404 5405 5406 5408 5408 5408 5408
5275 5278 5280 5283 5286 5289 5292 5295 5299 5303 5307 5313 5318 5323 5327 5332 5336 5339 5343 5348 5351 5354 5357 5360 5363 5365 5367 5371 5374 5377 5379 5380 5382 5385 5387 5389 5391 5393 5394 5396 5396 5396 5397
5267 5269 5271 5274 5277 5280 5283 5286 5290 5294 5299 5303 5308 5312 5317 5321 5325 5328 5332 5336 5340 5342 5346 5349 5352 5354 5357 5360 5363 5366 5369 5370 5372 5373 5374 5377 5379 5381 5382 5384 5385 5385 5385
5259 5261 5264 5266 5269 5272 5276 5279 5282 5285 5290 5294 5298 5303 5306 5310 5314 5318 5322 5325 5328 5332 5335 5337 5340 5344 5346 5349 5352 5355 5358 5359 5360 5362 5364 5365 5367 5369 5371 5372 5373 5373 5373